This is the latest recevied weather packets stored in our database for station/object AA8FM-13. If no packets are shown the sender has not sent any weather packets the latest 10 day(s).
| Time | Temp. | Humidity | Pressure | Rain* | Wind** | Luminosity | Snow |
|---|---|---|---|---|---|---|---|
| 1777748985 | 11.67° C | 48% | 1011.4 hPa | 0 mm | - | 215 W/m² | - |
| 1777748682 | 11.11° C | 48% | 1011.7 hPa | 0 mm | - | 474 W/m² | - |
| 1777748378 | 10.56° C | 49% | 1011.9 hPa | 0 mm | - | 233 W/m² | - |
| 1777748074 | 10.56° C | 48% | 1011.6 hPa | 0 mm | - | 218 W/m² | - |
| 1777747771 | 10.56° C | 50% | 1011.6 hPa | 0 mm | - | 198 W/m² | - |
| 1777747466 | 10.56° C | 48% | 1011.8 hPa | 0 mm | - | 213 W/m² | - |
| 1777747163 | 10.56° C | 47% | 1011.6 hPa | 0 mm | - | 196 W/m² | - |
| 1777746860 | 10.56° C | 46% | 1011.7 hPa | 0 mm | - | 197 W/m² | - |
| 1777746555 | 11.11° C | 47% | 1011.6 hPa | 0 mm | - | 196 W/m² | - |
| 1777746251 | 11.67° C | 45% | 1011.6 hPa | 0 mm | - | 229 W/m² | - |
| 1777745947 | 11.67° C | 46% | 1011.5 hPa | 0 mm | - | 744 W/m² | - |
| 1777745645 | 11.11° C | 49% | 1011.7 hPa | 0 mm | - | 268 W/m² | - |
| 1777745343 | 11.11° C | 48% | 1011.7 hPa | 0 mm | - | 188 W/m² | - |
| 1777745039 | 11.11° C | 44% | 1011.8 hPa | 0 mm | - | 174 W/m² | - |
| 1777744736 | 11.11° C | 48% | 1012 hPa | 0 mm | - | 684 W/m² | - |
| 1777744430 | 11.11° C | 47% | 1012.1 hPa | 0 mm | - | 192 W/m² | - |
| 1777744127 | 11.11° C | 50% | 1011.9 hPa | 0 mm | - | 191 W/m² | - |
| 1777743825 | 12.22° C | 48% | 1012 hPa | 0 mm | - | 210 W/m² | - |
| 1777743521 | 11.67° C | 46% | 1012 hPa | 0 mm | - | 396 W/m² | - |
| 1777743218 | 10.56° C | 45% | 1011.9 hPa | 0 mm | - | 808 W/m² | - |
| 1777742916 | 11.11° C | 45% | 1012 hPa | 0 mm | - | 187 W/m² | - |
| 1777742613 | 12.22° C | 44% | 1011.8 hPa | 0 mm | - | 347 W/m² | - |
| 1777742308 | 12.22° C | 42% | 1011.8 hPa | 0 mm | - | 811 W/m² | - |
| 1777742006 | 11.67° C | 45% | 1011.7 hPa | 0 mm | - | 756 W/m² | - |
| 1777741703 | 11.67° C | 45% | 1012 hPa | 0 mm | - | 745 W/m² | - |
* Rain latest hour (hover to see other rain measurements)
** Current wind speed in m/s (hover to see current wind gust speed)